Regional Weather Roundup
Issued by NWS Spokane, WA

Home | Current Version | Previous Version | Text Only | Print | Product List | Glossary On
Versions: 1 2 3 4 5 6 7 8 9 10 11 12 13 14 15 16 17 18 19 20 21 22 23 24 25 26 27 28 29 30 31 32 33 34 35 36 37 38 39 40 41 42 43 44 45 46 47 48 49 50
000
NZUS01 KOTX 290110
RWROTX
EASTERN WASHINGTON/NORTHERN IDAHO ROUNDUP
NATIONAL WEATHER SERVICE, SPOKANE WA
600 PM PDT SAT MAR 28 2015

Note: "fair" indicated few or no clouds below 12,000 feet with no
significant weather and/or obstructions to visibility.

...NORTHEAST WASHINGTON AND NORTHERN IDAHO PANHANDLE...

CITY           SKY/WX    TMP DP  RH WIND       PRES   REMARKS
SPOKANE INTL   PTSUNNY   55  33  43 SW22      30.21R
SPOKANE DOWNTO PTSUNNY   57  33  40 W10G29    30.21R
COEUR D ALENE  PTSUNNY   54  34  47 SW20      30.20S
DEER PARK      PTSUNNY   56  32  40 SW17G23   30.19R
SANDPOINT      CLOUDY    50  45  81 CALM      30.17R
BONNERS FERRY  MOCLDY    54  37  54 SW3       30.15R

...SOUTHEAST WASHINGTON AND SOUTHERN IDAHO PANHANDLE...

CITY           SKY/WX    TMP DP  RH WIND       PRES   REMARKS
WALLA WALLA    MOSUNNY   60  38  43 W12       30.29F
PULLMAN/MOSCOW PTSUNNY   51  35  54 W14       30.29S
LEWISTON       SUNNY     57  35  43 NW10      30.27S
LOWELL           N/A     52  46  80 N3        30.30R

...COLUMBIA BASIN...

CITY           SKY/WX    TMP DP  RH WIND       PRES   REMARKS
EPHRATA        CLOUDY    60  31  33 W15       30.21R
MOSES LAKE     CLOUDY    60  36  40 W14       30.23R
TRI CITIES     PTSUNNY   64  37  36 SW18      30.26F
HERMISTON      PTSUNNY   61  35  37 W17G26    30.28F
PENDLETON      MOSUNNY   57  37  47 W17       30.28F

...EAST SLOPES CASCADES...

CITY           SKY/WX    TMP DP  RH WIND       PRES   REMARKS
THE DALLES     MOSUNNY   61  37  41 NW17      30.30F
YAKIMA         MOSUNNY   64  34  32 W15       30.25F
ELLENSBURG     PTSUNNY   56  36  47 NW22      30.26F
WENATCHEE      PTSUNNY   60  31  33 NW14      30.24R
OMAK           CLOUDY    62  24  23 W5        30.15R

...SOUTHERN BRITISH COLUMBIA...

CITY           SKY/WX    TMP DP  RH WIND       PRES   REMARKS
PENTICTON      PTSUNNY   57  30  35 N12       30.17R
CASTLEGAR      PTSUNNY   57  39  51 S2        30.13S
CRANBROOK      PTSUNNY   48  32  53 W14G25    30.09R

...WESTERN MONTANA...

CITY           SKY/WX    TMP DP  RH WIND       PRES   REMARKS
MISSOULA       MOCLDY    50  31  48 W20       30.24R

...NEIGHBORING CITIES...

CITY           SKY/WX    TMP DP  RH WIND       PRES   REMARKS
SEATTLE        CLOUDY    56  43  61 SW9       30.34R
CALGARY        MOCLDY    46  32  57 N10       29.94R



USA.gov is the U.S. government's official web portal to all federal, state and local government web resources and services.